Back to catalog

THEA

AliveScienceSSO
NORAD 43796·PAYLOAD·🇺🇸 United States

Launched Dec 3, 2018 from Vandenberg Space Force Base

Loading…

Next Passes (next 24 hours)

TLE

FreshSource: Space-Track

Epoch: Sep 14, 2026, 03:58 UTC

1 43796U 18099AQ  26257.16571565  .00014040  00000-0  37929-3 0  9996
2 43796  97.4359 327.8685 0005850 336.2093  23.8881 15.37845585426352

Track THEA in real time with AllMySat

Download on the App Store